Year,Month,Day,Hour,Minute,Value (Times are PST for temperature in C)
2007,01,31,00,00,2.20
2007,01,31,00,01,2.20
2007,01,31,00,02,2.20
2007,01,31,00,03,2.20
2007,01,31,00,04,2.30
2007,01,31,00,05,2.30
2007,01,31,00,06,2.30
2007,01,31,00,07,2.40
2007,01,31,00,08,2.40
2007,01,31,00,09,2.50
2007,01,31,00,10,2.40
2007,01,31,00,11,2.50
2007,01,31,00,12,2.60
2007,01,31,01,02,1.70
2007,01,31,01,03,1.70
2007,01,31,01,04,1.70
2007,01,31,01,05,1.70
2007,01,31,01,06,1.70
2007,01,31,01,07,1.60
2007,01,31,01,08,1.60
2007,01,31,01,09,1.60
2007,01,31,01,10,1.60
2007,01,31,01,11,1.60
2007,01,31,01,12,1.70
2007,01,31,01,13,1.70
2007,01,31,01,14,1.70
2007,01,31,01,15,1.70
2007,01,31,01,16,1.60
2007,01,31,01,17,1.60
2007,01,31,01,18,1.60
2007,01,31,01,19,1.60
2007,01,31,01,20,1.60
2007,01,31,01,21,1.60
2007,01,31,01,22,1.60
2007,01,31,01,23,1.60
2007,01,31,01,24,1.60
2007,01,31,01,25,1.60
2007,01,31,01,26,1.50
2007,01,31,01,27,1.60
2007,01,31,01,28,1.60
2007,01,31,01,29,1.60
2007,01,31,01,30,1.60
2007,01,31,01,31,1.60
2007,01,31,01,32,1.60
2007,01,31,01,33,1.50
2007,01,31,01,34,1.50
2007,01,31,01,35,1.40
2007,01,31,01,36,1.40
2007,01,31,01,37,1.30
2007,01,31,01,38,1.30
2007,01,31,01,39,1.30
2007,01,31,01,40,1.30
2007,01,31,01,41,1.20
2007,01,31,01,42,1.20
2007,01,31,01,43,1.10
2007,01,31,01,44,1.00
2007,01,31,01,45,1.00
2007,01,31,01,46,0.90
2007,01,31,01,47,0.90
2007,01,31,01,48,0.80
2007,01,31,01,49,0.80
2007,01,31,01,50,0.80
2007,01,31,01,51,0.70
2007,01,31,01,52,0.70
2007,01,31,01,53,0.70
2007,01,31,01,54,0.70
2007,01,31,01,55,0.70
2007,01,31,01,56,0.70
2007,01,31,01,57,0.70
2007,01,31,01,58,0.70
2007,01,31,01,59,0.70
2007,01,31,02,00,0.80
2007,01,31,02,01,1.10
2007,01,31,02,02,1.30
2007,01,31,02,03,1.40
2007,01,31,02,04,1.60
2007,01,31,02,05,1.70
2007,01,31,02,06,1.70
2007,01,31,02,07,1.70
2007,01,31,02,08,1.70
2007,01,31,02,09,1.70
2007,01,31,02,10,1.60
2007,01,31,02,11,1.60
2007,01,31,02,12,1.50
2007,01,31,02,13,1.50
2007,01,31,02,14,1.50
2007,01,31,02,15,1.40
2007,01,31,02,16,1.40
2007,01,31,02,17,1.40
2007,01,31,02,18,1.40
2007,01,31,02,19,1.40
2007,01,31,02,20,1.50
2007,01,31,02,21,1.50
2007,01,31,02,22,1.60
2007,01,31,02,23,1.60
2007,01,31,02,24,1.50
2007,01,31,02,25,1.60
2007,01,31,02,26,1.60
2007,01,31,02,27,1.60
2007,01,31,02,28,1.60
2007,01,31,02,29,1.60
2007,01,31,02,30,1.70
2007,01,31,02,31,1.70
2007,01,31,02,32,1.70
2007,01,31,02,33,1.70
2007,01,31,02,34,1.70
2007,01,31,02,35,1.70
2007,01,31,02,36,1.70
2007,01,31,02,37,1.70
2007,01,31,02,38,1.70
2007,01,31,02,39,1.80
2007,01,31,02,40,1.80
2007,01,31,02,41,1.80
2007,01,31,02,42,1.80
2007,01,31,02,43,1.80
2007,01,31,02,44,1.80
2007,01,31,02,45,1.80
2007,01,31,02,46,1.80
2007,01,31,02,47,1.80
2007,01,31,02,48,1.80
2007,01,31,02,49,1.80
2007,01,31,02,50,1.80
2007,01,31,02,51,1.80
2007,01,31,02,52,1.80
2007,01,31,02,53,1.80
2007,01,31,02,54,1.80
2007,01,31,02,55,1.80
2007,01,31,02,56,1.80
2007,01,31,02,57,1.80
2007,01,31,02,58,1.80
2007,01,31,02,59,1.80
2007,01,31,03,00,1.80
2007,01,31,03,01,1.80
2007,01,31,03,02,1.80
2007,01,31,03,03,1.80
2007,01,31,03,04,1.80
2007,01,31,03,05,1.80
2007,01,31,03,06,1.80
2007,01,31,03,07,1.80
2007,01,31,03,08,1.90
2007,01,31,03,09,1.90
2007,01,31,03,10,1.90
2007,01,31,03,11,1.90
2007,01,31,03,12,1.90
2007,01,31,03,13,1.90
2007,01,31,03,14,1.90
2007,01,31,03,15,1.80
2007,01,31,03,16,1.80
2007,01,31,03,17,1.80
2007,01,31,03,18,1.70
2007,01,31,03,19,1.70
2007,01,31,03,20,1.70
2007,01,31,03,21,1.70
2007,01,31,03,22,1.60
2007,01,31,03,23,1.60
2007,01,31,03,24,1.60
2007,01,31,03,25,1.60
2007,01,31,03,26,1.60
2007,01,31,03,27,1.50
2007,01,31,03,28,1.50
2007,01,31,03,29,1.40
2007,01,31,03,30,1.40
2007,01,31,03,31,1.40
2007,01,31,03,32,1.40
2007,01,31,03,33,1.30
2007,01,31,03,34,1.30
2007,01,31,03,35,1.30
2007,01,31,03,36,1.30
2007,01,31,03,37,1.30
2007,01,31,03,38,1.30
2007,01,31,03,39,1.30
2007,01,31,03,40,1.30
2007,01,31,03,41,1.30
2007,01,31,03,42,1.30
2007,01,31,03,43,1.30
2007,01,31,03,44,1.30
2007,01,31,03,45,1.30
2007,01,31,03,46,1.30
2007,01,31,03,47,1.20
2007,01,31,03,48,1.20
2007,01,31,03,49,1.10
2007,01,31,03,50,1.10
2007,01,31,03,51,1.10
2007,01,31,03,52,1.00
2007,01,31,03,53,1.00
2007,01,31,03,54,1.00
2007,01,31,03,55,1.00
2007,01,31,03,56,0.90
2007,01,31,03,57,0.90
2007,01,31,03,58,0.90
2007,01,31,03,59,0.80
2007,01,31,04,00,0.80
2007,01,31,04,01,0.80
2007,01,31,04,02,0.80
2007,01,31,04,03,0.80
2007,01,31,04,04,0.70
2007,01,31,04,05,0.70
2007,01,31,04,06,0.70
2007,01,31,04,07,0.70
2007,01,31,04,08,0.60
2007,01,31,04,09,0.60
2007,01,31,04,10,0.60
2007,01,31,04,11,0.50
2007,01,31,04,12,0.50
2007,01,31,04,13,0.50
2007,01,31,04,14,0.50
2007,01,31,04,15,0.50
2007,01,31,04,16,0.50
2007,01,31,04,17,0.50
2007,01,31,04,18,0.50
2007,01,31,04,19,0.50
2007,01,31,04,20,0.50
2007,01,31,04,21,0.40
2007,01,31,04,22,0.40
2007,01,31,04,23,0.40
2007,01,31,04,24,0.40
2007,01,31,04,25,0.30
2007,01,31,04,26,0.30
2007,01,31,04,27,0.30
2007,01,31,04,28,0.30
2007,01,31,04,29,0.20
2007,01,31,04,30,0.20
2007,01,31,04,31,0.20
2007,01,31,04,32,0.10
2007,01,31,04,33,0.10
2007,01,31,04,34,0.10
2007,01,31,04,35,0.00
2007,01,31,04,36,0.00
2007,01,31,04,37,-0.10
2007,01,31,04,38,-0.10
2007,01,31,04,39,-0.10
2007,01,31,04,40,-0.10
2007,01,31,04,41,-0.10
2007,01,31,04,42,-0.10
2007,01,31,04,43,-0.10
2007,01,31,04,44,-0.10
2007,01,31,04,45,-0.10
2007,01,31,04,46,-0.10
2007,01,31,04,47,-0.10
2007,01,31,04,48,-0.10
2007,01,31,04,49,-0.10
2007,01,31,04,50,-0.10
2007,01,31,04,51,-0.10
2007,01,31,04,52,-0.20
2007,01,31,04,53,-0.10
2007,01,31,04,54,-0.20
2007,01,31,04,55,-0.20
2007,01,31,04,56,-0.10
2007,01,31,04,57,-0.10
2007,01,31,04,58,-0.10
2007,01,31,04,59,-0.10
2007,01,31,05,00,-0.10
2007,01,31,05,01,-0.10
2007,01,31,05,02,-0.10
2007,01,31,05,03,-0.20
2007,01,31,05,04,-0.20
2007,01,31,05,05,-0.20
2007,01,31,05,06,-0.20
2007,01,31,05,07,-0.20
2007,01,31,05,08,-0.20
2007,01,31,05,09,-0.20
2007,01,31,05,10,-0.20
2007,01,31,05,11,-0.20
2007,01,31,05,12,-0.20
2007,01,31,05,13,-0.20
2007,01,31,05,14,-0.20
2007,01,31,05,15,-0.20
2007,01,31,05,16,-0.20
2007,01,31,05,17,-0.20
2007,01,31,05,18,-0.20
2007,01,31,05,19,-0.20
2007,01,31,05,20,-0.20
2007,01,31,05,21,-0.20
2007,01,31,05,22,-0.20
2007,01,31,05,23,-0.20
2007,01,31,05,24,-0.20
2007,01,31,05,25,-0.30
2007,01,31,05,26,-0.30
2007,01,31,05,27,-0.30
2007,01,31,05,28,-0.30
2007,01,31,05,29,-0.40
2007,01,31,05,30,-0.40
2007,01,31,05,31,-0.40
2007,01,31,05,32,-0.40
2007,01,31,05,33,-0.40
2007,01,31,05,34,-0.40
2007,01,31,05,35,-0.40
2007,01,31,05,36,-0.40
2007,01,31,05,37,-0.40
2007,01,31,05,38,-0.40
2007,01,31,05,39,-0.40
2007,01,31,05,40,-0.40
2007,01,31,05,41,-0.50
2007,01,31,05,42,-0.50
2007,01,31,05,43,-0.50
2007,01,31,05,44,-0.50
2007,01,31,05,45,-0.50
2007,01,31,05,46,-0.50
2007,01,31,05,47,-0.50
2007,01,31,05,48,-0.50
2007,01,31,05,49,-0.50
2007,01,31,05,50,-0.50
2007,01,31,05,51,-0.50
2007,01,31,05,52,-0.50
2007,01,31,05,53,-0.50
2007,01,31,05,54,-0.50
2007,01,31,05,55,-0.50
2007,01,31,05,56,-0.40
2007,01,31,05,57,-0.40
2007,01,31,05,58,-0.40
2007,01,31,05,59,-0.40
2007,01,31,06,00,-0.30
2007,01,31,06,01,-0.30
2007,01,31,06,02,-0.30
2007,01,31,06,03,-0.30
2007,01,31,06,04,-0.30
2007,01,31,06,05,-0.30
2007,01,31,06,06,-0.30
2007,01,31,06,07,-0.30
2007,01,31,06,08,-0.40
2007,01,31,06,09,-0.40
2007,01,31,06,10,-0.40
2007,01,31,06,11,-0.40
2007,01,31,06,12,-0.40
2007,01,31,06,13,-0.50
2007,01,31,06,14,-0.50
2007,01,31,06,15,-0.40
2007,01,31,06,16,-0.40
2007,01,31,06,17,-0.40
2007,01,31,06,18,-0.40
2007,01,31,06,19,-0.30
2007,01,31,06,20,-0.30
2007,01,31,06,21,-0.30
2007,01,31,06,22,-0.30
2007,01,31,06,23,-0.20
2007,01,31,06,24,-0.20
2007,01,31,06,25,-0.20
2007,01,31,06,26,-0.20
2007,01,31,06,27,-0.20
2007,01,31,06,28,-0.20
2007,01,31,06,29,-0.20
2007,01,31,06,30,-0.30
2007,01,31,06,31,-0.30
2007,01,31,06,32,-0.30
2007,01,31,06,33,-0.40
2007,01,31,06,34,-0.40
2007,01,31,06,35,-0.50
2007,01,31,06,36,-0.50
2007,01,31,06,37,-0.60
2007,01,31,06,38,-0.70
2007,01,31,06,39,-0.70
2007,01,31,06,40,-0.70
2007,01,31,06,41,-0.70
2007,01,31,06,42,-0.70
2007,01,31,06,43,-0.70
2007,01,31,06,44,-0.70
2007,01,31,06,45,-0.70
2007,01,31,06,46,-0.70
2007,01,31,06,47,-0.70
2007,01,31,06,48,-0.80
2007,01,31,06,49,-0.80
2007,01,31,06,50,-0.80
2007,01,31,06,51,-0.80
2007,01,31,06,52,-0.80
2007,01,31,06,53,-0.80
2007,01,31,06,54,-0.90
2007,01,31,06,55,-0.90
2007,01,31,06,56,-0.90
2007,01,31,06,57,-1.00
2007,01,31,06,58,-1.00
2007,01,31,06,59,-1.00
2007,01,31,07,00,-1.00
2007,01,31,07,01,-1.00
2007,01,31,07,02,-1.00
2007,01,31,07,03,-1.00
2007,01,31,07,04,-1.00
2007,01,31,07,05,-1.00
2007,01,31,07,06,-1.00
2007,01,31,07,07,-1.00
2007,01,31,07,08,-1.00
2007,01,31,07,09,-1.00
2007,01,31,07,10,-1.00
2007,01,31,07,11,-1.10
2007,01,31,07,12,-1.10
2007,01,31,07,13,-1.10
2007,01,31,07,14,-1.10
2007,01,31,07,15,-1.10
2007,01,31,07,16,-1.10
2007,01,31,07,17,-1.10
2007,01,31,07,18,-1.10
2007,01,31,07,19,-1.10
2007,01,31,07,20,-1.10
2007,01,31,07,21,-1.10
2007,01,31,07,22,-1.10
2007,01,31,07,23,-1.10
2007,01,31,07,24,-1.10
2007,01,31,07,25,-1.10
2007,01,31,07,26,-1.10
2007,01,31,07,27,-1.10
2007,01,31,07,28,-1.10
2007,01,31,07,29,-1.10
2007,01,31,07,30,-1.10
2007,01,31,07,31,-1.10
2007,01,31,07,32,-1.10
2007,01,31,07,33,-1.10
2007,01,31,07,34,-1.10
2007,01,31,07,35,-1.00
2007,01,31,07,36,-1.00
2007,01,31,07,37,-1.00
2007,01,31,07,38,-1.00
2007,01,31,07,39,-1.00
2007,01,31,07,40,-1.00
2007,01,31,07,41,-1.00
2007,01,31,07,42,-1.10
2007,01,31,07,43,-1.10
2007,01,31,07,44,-1.10
2007,01,31,07,45,-1.10
2007,01,31,07,46,-1.10
2007,01,31,07,47,-1.10
2007,01,31,07,48,-1.10
2007,01,31,07,49,-1.10
2007,01,31,07,50,-1.20
2007,01,31,07,51,-1.20
2007,01,31,07,52,-1.20
2007,01,31,07,53,-1.20
2007,01,31,07,54,-1.20
2007,01,31,07,55,-1.20
2007,01,31,07,56,-1.20
2007,01,31,07,57,-1.20
2007,01,31,07,58,-1.20
2007,01,31,07,59,-1.20
2007,01,31,08,00,-1.20
2007,01,31,08,01,-1.20
2007,01,31,08,02,-1.20
2007,01,31,08,03,-1.20
2007,01,31,08,04,-1.30
2007,01,31,08,05,-1.30
2007,01,31,08,06,-1.30
2007,01,31,08,07,-1.30
2007,01,31,08,08,-1.30
2007,01,31,08,09,-1.20
2007,01,31,08,10,-1.20
2007,01,31,08,11,-1.20
2007,01,31,08,12,-1.20
2007,01,31,08,13,-1.20
2007,01,31,08,14,-1.20
2007,01,31,08,15,-1.20
2007,01,31,08,16,-1.10
2007,01,31,08,17,-1.10
2007,01,31,08,18,-1.10
2007,01,31,08,19,-1.10
2007,01,31,08,20,-1.10
2007,01,31,08,21,-1.10
2007,01,31,08,22,-1.10
2007,01,31,08,23,-1.00
2007,01,31,08,24,-1.00
2007,01,31,08,25,-1.00
2007,01,31,08,26,-0.90
2007,01,31,08,27,-0.90
2007,01,31,08,28,-0.90
2007,01,31,08,29,-0.90
2007,01,31,08,30,-0.90
2007,01,31,08,31,-0.80
2007,01,31,08,32,-0.80
2007,01,31,08,33,-0.80
2007,01,31,08,34,-0.80
2007,01,31,08,35,-0.80
2007,01,31,08,36,-0.70
2007,01,31,08,37,-0.70
2007,01,31,08,38,-0.70
2007,01,31,08,39,-0.70
2007,01,31,08,40,-0.70
2007,01,31,08,41,-0.60
2007,01,31,08,42,-0.60
2007,01,31,08,43,-0.60
2007,01,31,08,44,-0.60
2007,01,31,08,45,-0.50
2007,01,31,08,46,-0.50
2007,01,31,08,47,-0.40
2007,01,31,08,48,-0.30
2007,01,31,08,49,-0.30
2007,01,31,08,50,-0.20
2007,01,31,08,51,-0.10
2007,01,31,08,52,-0.10
2007,01,31,08,53,0.00
2007,01,31,08,54,0.10
2007,01,31,08,55,0.10
2007,01,31,08,56,0.20
2007,01,31,08,57,0.30
2007,01,31,08,58,0.30
2007,01,31,08,59,0.40
2007,01,31,09,00,0.40
2007,01,31,09,01,0.40
2007,01,31,09,02,0.50
2007,01,31,09,03,0.60
2007,01,31,09,04,0.60
2007,01,31,09,05,0.70
2007,01,31,09,06,0.80
2007,01,31,09,07,0.90
2007,01,31,09,08,1.00
2007,01,31,09,09,1.10
2007,01,31,09,10,1.20
2007,01,31,09,11,1.30
2007,01,31,09,12,1.30
2007,01,31,09,13,1.30
2007,01,31,09,14,1.40
2007,01,31,09,15,1.50
2007,01,31,09,16,1.50
2007,01,31,09,17,1.60
2007,01,31,09,18,1.70
2007,01,31,09,19,1.80
2007,01,31,09,20,1.80
2007,01,31,09,21,2.00
2007,01,31,09,22,2.10
2007,01,31,09,23,2.20
2007,01,31,09,24,2.30
2007,01,31,09,25,2.40
2007,01,31,09,26,2.50
2007,01,31,09,27,2.50
2007,01,31,09,28,2.70
2007,01,31,09,29,2.70
2007,01,31,09,30,2.80
2007,01,31,09,31,2.90
2007,01,31,09,32,3.00
2007,01,31,09,33,3.10
2007,01,31,09,34,3.20
2007,01,31,09,35,3.20
2007,01,31,09,36,3.30
2007,01,31,09,37,3.30
2007,01,31,09,38,3.40
2007,01,31,09,39,3.40
2007,01,31,09,40,3.40
2007,01,31,09,41,3.50
2007,01,31,09,42,3.50
2007,01,31,09,43,3.60
2007,01,31,09,44,3.60
2007,01,31,09,45,3.60
2007,01,31,09,46,3.70
2007,01,31,09,47,3.70
2007,01,31,09,48,3.70
2007,01,31,09,49,3.80
2007,01,31,09,50,3.80
2007,01,31,09,51,3.90
2007,01,31,09,52,3.90
2007,01,31,09,53,4.00
2007,01,31,09,54,4.10
2007,01,31,09,55,4.10
2007,01,31,09,56,4.20
2007,01,31,09,57,4.20
2007,01,31,09,58,4.20
2007,01,31,09,59,4.30
2007,01,31,10,00,4.30
2007,01,31,10,01,4.30
2007,01,31,10,02,4.30
2007,01,31,10,03,4.30
2007,01,31,10,04,4.30
2007,01,31,10,05,4.40
2007,01,31,10,06,4.40
2007,01,31,10,07,4.40
2007,01,31,10,08,4.40
2007,01,31,10,09,4.40
2007,01,31,10,10,4.50
2007,01,31,10,11,4.50
2007,01,31,10,12,4.50
2007,01,31,10,13,4.60
2007,01,31,10,14,4.60
2007,01,31,10,15,4.60
2007,01,31,10,16,4.60
2007,01,31,10,17,4.70
2007,01,31,10,18,4.70
2007,01,31,10,19,4.80
2007,01,31,10,20,4.90
2007,01,31,10,21,4.90
2007,01,31,10,22,4.90
2007,01,31,10,23,5.00
2007,01,31,10,24,5.10
2007,01,31,10,25,5.10
2007,01,31,10,26,5.10
2007,01,31,10,27,5.20
2007,01,31,10,28,5.20
2007,01,31,10,29,5.20
2007,01,31,10,30,5.30
2007,01,31,10,31,5.20
2007,01,31,10,32,5.20
2007,01,31,10,33,5.20
2007,01,31,10,34,5.10
2007,01,31,10,35,5.10
2007,01,31,10,36,5.00
2007,01,31,10,37,4.90
2007,01,31,10,38,4.90
2007,01,31,10,39,4.80
2007,01,31,10,40,4.80
2007,01,31,10,41,4.80
2007,01,31,10,42,4.90
2007,01,31,10,43,4.90
2007,01,31,10,44,4.90
2007,01,31,10,45,4.90
2007,01,31,10,46,4.90
2007,01,31,10,47,4.80
2007,01,31,10,48,4.80
2007,01,31,10,49,4.80
2007,01,31,10,50,4.80
2007,01,31,10,51,4.80
2007,01,31,10,52,4.90
2007,01,31,10,53,5.00
2007,01,31,10,54,5.10
2007,01,31,10,55,5.10
2007,01,31,10,56,5.20
2007,01,31,10,57,5.30
2007,01,31,10,58,5.30
2007,01,31,10,59,5.30
2007,01,31,11,00,5.30
2007,01,31,11,01,5.30
2007,01,31,11,02,5.30
2007,01,31,11,03,5.30
2007,01,31,11,04,5.30
2007,01,31,11,05,5.30
2007,01,31,11,06,5.30
2007,01,31,11,07,5.30
2007,01,31,11,08,5.30
2007,01,31,11,09,5.30
2007,01,31,11,10,5.40
2007,01,31,11,11,5.50
2007,01,31,11,12,5.50
2007,01,31,11,13,5.60
2007,01,31,11,14,5.60
2007,01,31,11,15,5.60
2007,01,31,11,16,5.70
2007,01,31,11,17,5.80
2007,01,31,11,18,5.80
2007,01,31,11,19,5.80
2007,01,31,11,20,5.80
2007,01,31,11,21,5.80
2007,01,31,11,22,5.90
2007,01,31,11,23,6.00
2007,01,31,11,24,6.00
2007,01,31,11,25,6.10
2007,01,31,11,26,6.10
2007,01,31,11,27,6.20
2007,01,31,11,28,6.20
2007,01,31,11,29,6.30
2007,01,31,11,30,6.30
2007,01,31,11,31,6.30
2007,01,31,11,32,6.20
2007,01,31,11,33,6.20
2007,01,31,11,34,6.20
2007,01,31,11,35,6.20
2007,01,31,11,36,6.30
2007,01,31,11,37,6.30
2007,01,31,11,38,6.30
2007,01,31,11,39,6.40
2007,01,31,11,40,6.40
2007,01,31,11,41,6.50
2007,01,31,11,42,6.50
2007,01,31,11,43,6.50
2007,01,31,11,44,6.60
2007,01,31,11,45,6.60
2007,01,31,11,46,6.50
2007,01,31,11,47,6.40
2007,01,31,11,48,6.40
2007,01,31,11,49,6.40
2007,01,31,11,50,6.40
2007,01,31,11,51,6.40
2007,01,31,11,52,6.50
2007,01,31,11,53,6.50
2007,01,31,11,54,6.60
2007,01,31,11,55,6.70
2007,01,31,11,56,6.70
2007,01,31,11,57,6.70
2007,01,31,11,58,6.80
2007,01,31,11,59,6.80
2007,01,31,12,00,6.90
2007,01,31,12,01,6.90
2007,01,31,12,02,7.00
2007,01,31,12,03,7.10
2007,01,31,12,04,7.20
2007,01,31,12,05,7.20
2007,01,31,12,06,7.30
2007,01,31,12,07,7.30
2007,01,31,12,08,7.30
2007,01,31,12,09,7.40
2007,01,31,12,10,7.50
2007,01,31,12,11,7.50
2007,01,31,12,12,7.60
2007,01,31,12,13,7.60
2007,01,31,12,14,7.60
2007,01,31,12,15,7.60
2007,01,31,12,16,7.60
2007,01,31,12,17,7.60
2007,01,31,12,18,7.60
2007,01,31,12,19,7.60
2007,01,31,12,20,7.70
2007,01,31,12,21,7.70
2007,01,31,12,22,7.70
2007,01,31,12,23,7.70
2007,01,31,12,24,7.80
2007,01,31,12,25,7.80
2007,01,31,12,26,7.80
2007,01,31,12,27,7.90
2007,01,31,12,28,7.90
2007,01,31,12,29,8.00
2007,01,31,12,30,8.00
2007,01,31,12,31,8.10
2007,01,31,12,32,8.10
2007,01,31,12,33,8.10
2007,01,31,12,34,8.10
2007,01,31,12,35,8.10
2007,01,31,12,36,8.00
2007,01,31,12,37,8.00
2007,01,31,12,38,8.00
2007,01,31,12,39,8.00
2007,01,31,12,40,8.00
2007,01,31,12,41,8.10
2007,01,31,12,42,8.10
2007,01,31,12,43,8.00
2007,01,31,12,44,7.90
2007,01,31,12,45,7.90
2007,01,31,12,46,7.80
2007,01,31,12,47,7.80
2007,01,31,12,48,7.80
2007,01,31,12,49,7.90
2007,01,31,12,50,7.90
2007,01,31,12,51,7.90
2007,01,31,12,52,7.90
2007,01,31,12,53,7.80
2007,01,31,12,54,7.80
2007,01,31,12,55,7.80
2007,01,31,12,56,7.80
2007,01,31,12,57,7.80
2007,01,31,12,58,7.80
2007,01,31,12,59,7.70
2007,01,31,13,00,7.70
2007,01,31,13,01,7.60
2007,01,31,13,02,7.60
2007,01,31,13,03,7.60
2007,01,31,13,04,7.50
2007,01,31,13,05,7.50
2007,01,31,13,06,7.60
2007,01,31,13,07,7.60
2007,01,31,13,08,7.70
2007,01,31,13,09,7.70
2007,01,31,13,10,7.60
2007,01,31,13,11,7.70
2007,01,31,13,12,7.70
2007,01,31,13,13,7.70
2007,01,31,13,14,7.70
2007,01,31,13,15,7.70
2007,01,31,13,16,7.60
2007,01,31,13,17,7.60
2007,01,31,13,18,7.60
2007,01,31,13,19,7.70
2007,01,31,13,20,7.70
2007,01,31,13,21,7.70
2007,01,31,13,22,7.70
2007,01,31,13,23,7.70
2007,01,31,13,24,7.70
2007,01,31,13,25,7.70
2007,01,31,13,26,7.80
2007,01,31,13,27,7.80
2007,01,31,13,28,7.80
2007,01,31,13,29,7.80
2007,01,31,13,30,7.80
2007,01,31,13,31,7.80
2007,01,31,13,32,7.80
2007,01,31,13,33,7.80
2007,01,31,13,34,7.80
2007,01,31,13,35,7.80
2007,01,31,13,36,7.80
2007,01,31,13,37,7.80
2007,01,31,13,38,7.80
2007,01,31,13,39,7.80
2007,01,31,13,40,7.80
2007,01,31,13,41,7.80
2007,01,31,13,42,7.80
2007,01,31,13,43,7.80
2007,01,31,13,44,7.80
2007,01,31,13,45,7.80
2007,01,31,13,46,7.80
2007,01,31,13,47,7.80
2007,01,31,13,48,7.80
2007,01,31,13,49,7.80
2007,01,31,13,50,7.80
2007,01,31,13,51,7.80
2007,01,31,13,52,7.80
2007,01,31,13,53,7.80
2007,01,31,13,54,7.80
2007,01,31,13,55,7.80
2007,01,31,13,56,7.80
2007,01,31,13,57,7.80
2007,01,31,13,58,7.80
2007,01,31,13,59,7.90
2007,01,31,14,00,7.90
2007,01,31,14,01,7.90
2007,01,31,14,02,7.90
2007,01,31,14,03,7.90
2007,01,31,14,04,7.90
2007,01,31,14,05,7.90
2007,01,31,14,06,7.90
2007,01,31,14,07,7.90
2007,01,31,14,08,8.00
2007,01,31,14,09,8.00
2007,01,31,14,10,8.00
2007,01,31,14,11,7.90
2007,01,31,14,12,7.90
2007,01,31,14,13,7.90
2007,01,31,14,14,7.90
2007,01,31,14,15,7.90
2007,01,31,14,16,7.80
2007,01,31,14,17,7.80
2007,01,31,14,18,7.70
2007,01,31,14,19,7.70
2007,01,31,14,20,7.60
2007,01,31,14,21,7.60
2007,01,31,14,22,7.50
2007,01,31,14,23,7.50
2007,01,31,14,24,7.50
2007,01,31,14,25,7.40
2007,01,31,14,26,7.40
2007,01,31,14,27,7.40
2007,01,31,14,28,7.50
2007,01,31,14,29,7.50
2007,01,31,14,30,7.60
2007,01,31,14,31,7.60
2007,01,31,14,32,7.60
2007,01,31,14,33,7.60
2007,01,31,14,34,7.70
2007,01,31,14,35,7.70
2007,01,31,14,36,7.70
2007,01,31,14,37,7.80
2007,01,31,14,38,7.80
2007,01,31,14,39,7.90
2007,01,31,14,40,8.00
2007,01,31,14,41,8.00
2007,01,31,14,42,8.10
2007,01,31,14,43,8.20
2007,01,31,14,44,8.20
2007,01,31,14,45,8.30
2007,01,31,14,46,8.30
2007,01,31,14,47,8.30
2007,01,31,14,48,8.40
2007,01,31,14,49,8.40
2007,01,31,14,50,8.40
2007,01,31,14,51,8.50
2007,01,31,14,52,8.50
2007,01,31,14,53,8.50
2007,01,31,14,54,8.60
2007,01,31,14,55,8.60
2007,01,31,14,56,8.60
2007,01,31,14,57,8.60
2007,01,31,14,58,8.70
2007,01,31,14,59,8.70
2007,01,31,15,00,8.70
2007,01,31,15,01,8.80
2007,01,31,15,02,8.70
2007,01,31,15,03,8.70
2007,01,31,15,04,8.70
2007,01,31,15,05,8.70
2007,01,31,15,06,8.60
2007,01,31,15,07,8.60
2007,01,31,15,08,8.50
2007,01,31,15,09,8.40
2007,01,31,15,10,8.30
2007,01,31,15,11,8.30
2007,01,31,15,12,8.30
2007,01,31,15,13,8.30
2007,01,31,15,14,8.30
2007,01,31,15,15,8.30
2007,01,31,15,16,8.30
2007,01,31,15,17,8.40
2007,01,31,15,18,8.40
2007,01,31,15,19,8.40
2007,01,31,15,20,8.40
2007,01,31,15,21,8.50
2007,01,31,15,22,8.50
2007,01,31,15,23,8.60
2007,01,31,15,24,8.60
2007,01,31,15,25,8.60
2007,01,31,15,26,8.60
2007,01,31,15,27,8.60
2007,01,31,15,28,8.60
2007,01,31,15,29,8.70
2007,01,31,15,30,8.70
2007,01,31,15,31,8.70
2007,01,31,15,32,8.60
2007,01,31,15,33,8.60
2007,01,31,15,34,8.60
2007,01,31,15,35,8.60
2007,01,31,15,36,8.60
2007,01,31,15,37,8.60
2007,01,31,15,38,8.60
2007,01,31,15,39,8.60
2007,01,31,15,40,8.60
2007,01,31,15,41,8.50
2007,01,31,15,42,8.40
2007,01,31,15,43,8.40
2007,01,31,15,44,8.40
2007,01,31,15,45,8.40
2007,01,31,15,46,8.40
2007,01,31,15,47,8.40
2007,01,31,15,48,8.40
2007,01,31,15,49,8.50
2007,01,31,15,50,8.50
2007,01,31,15,51,8.50
2007,01,31,15,52,8.60
2007,01,31,15,53,8.50
2007,01,31,15,54,8.50
2007,01,31,15,55,8.50
2007,01,31,15,56,8.40
2007,01,31,15,57,8.40
2007,01,31,15,58,8.40
2007,01,31,15,59,8.40
2007,01,31,16,00,8.40
2007,01,31,16,01,8.40
2007,01,31,16,02,8.30
2007,01,31,16,03,8.30
2007,01,31,16,04,8.30
2007,01,31,16,05,8.30
2007,01,31,16,06,8.30
2007,01,31,16,07,8.20
2007,01,31,16,08,8.20
2007,01,31,16,09,8.20
2007,01,31,16,10,8.20
2007,01,31,16,11,8.10
2007,01,31,16,12,8.10
2007,01,31,16,13,8.10
2007,01,31,16,14,8.00
2007,01,31,16,15,8.00
2007,01,31,16,16,7.90
2007,01,31,16,17,7.80
2007,01,31,16,18,7.80
2007,01,31,16,19,7.80
2007,01,31,16,20,7.70
2007,01,31,16,21,7.70
2007,01,31,16,22,7.70
2007,01,31,16,23,7.70
2007,01,31,16,24,7.60
2007,01,31,16,25,7.50
2007,01,31,16,26,7.50
2007,01,31,16,27,7.40
2007,01,31,16,28,7.30
2007,01,31,16,29,7.20
2007,01,31,16,30,7.20
2007,01,31,16,31,7.20
2007,01,31,16,32,7.10
2007,01,31,16,33,7.10
2007,01,31,16,34,7.00
2007,01,31,16,35,6.90
2007,01,31,16,36,6.80
2007,01,31,16,37,6.80
2007,01,31,16,38,6.70
2007,01,31,16,39,6.60
2007,01,31,16,40,6.50
2007,01,31,16,41,6.40
2007,01,31,16,42,6.30
2007,01,31,16,43,6.30
2007,01,31,16,44,6.20
2007,01,31,16,45,6.20
2007,01,31,16,46,6.10
2007,01,31,16,47,6.00
2007,01,31,16,48,6.00
2007,01,31,16,49,5.90
2007,01,31,16,50,5.90
2007,01,31,16,51,5.90
2007,01,31,16,52,5.80
2007,01,31,16,53,5.80
2007,01,31,16,54,5.70
2007,01,31,16,55,5.70
2007,01,31,16,56,5.60
2007,01,31,16,57,5.60
2007,01,31,16,58,5.50
2007,01,31,16,59,5.50
2007,01,31,17,00,5.40
2007,01,31,17,01,5.40
2007,01,31,17,02,5.40
2007,01,31,17,03,5.30
2007,01,31,17,04,5.30
2007,01,31,17,05,5.30
2007,01,31,17,06,5.30
2007,01,31,17,07,5.20
2007,01,31,17,08,5.20
2007,01,31,17,09,5.20
2007,01,31,17,10,5.10
2007,01,31,17,11,5.10
2007,01,31,17,12,5.10
2007,01,31,17,13,5.10
2007,01,31,17,14,5.10
2007,01,31,17,15,5.00
2007,01,31,17,16,5.00
2007,01,31,17,17,5.00
2007,01,31,17,18,4.90
2007,01,31,17,19,4.90
2007,01,31,17,20,4.90
2007,01,31,17,21,4.80
2007,01,31,17,22,4.80
2007,01,31,17,23,4.80
2007,01,31,17,24,4.70
2007,01,31,17,25,4.70
2007,01,31,17,26,4.70
2007,01,31,17,27,4.70
2007,01,31,17,28,4.60
2007,01,31,17,29,4.60
2007,01,31,17,30,4.60
2007,01,31,17,31,4.50
2007,01,31,17,32,4.50
2007,01,31,17,33,4.50
2007,01,31,17,34,4.40
2007,01,31,17,35,4.40
2007,01,31,17,36,4.30
2007,01,31,17,37,4.30
2007,01,31,17,38,4.30
2007,01,31,17,39,4.20
2007,01,31,17,40,4.20
2007,01,31,17,41,4.10
2007,01,31,17,42,4.10
2007,01,31,17,43,4.10
2007,01,31,17,44,4.00
2007,01,31,17,45,3.90
2007,01,31,17,46,3.90
2007,01,31,17,47,3.80
2007,01,31,17,48,3.80
2007,01,31,17,49,3.70
2007,01,31,17,50,3.70
2007,01,31,17,51,3.70
2007,01,31,17,52,3.60
2007,01,31,17,53,3.60
2007,01,31,17,54,3.60
2007,01,31,17,55,3.50
2007,01,31,17,56,3.50
2007,01,31,17,57,3.40
2007,01,31,17,58,3.40
2007,01,31,17,59,3.40
2007,01,31,18,00,3.40
2007,01,31,18,01,3.30
2007,01,31,18,02,3.30
2007,01,31,18,03,3.30
2007,01,31,18,04,3.20
2007,01,31,18,05,3.20
2007,01,31,18,06,3.20
2007,01,31,18,07,3.20
2007,01,31,18,08,3.20
2007,01,31,18,09,3.10
2007,01,31,18,10,3.10
2007,01,31,18,11,3.00
2007,01,31,18,12,3.00
2007,01,31,18,13,2.90
2007,01,31,18,14,2.90
2007,01,31,18,15,2.90
2007,01,31,18,16,2.80
2007,01,31,18,17,2.80
2007,01,31,18,18,2.80
2007,01,31,18,19,2.70
2007,01,31,18,20,2.70
2007,01,31,18,21,2.70
2007,01,31,18,22,2.60
2007,01,31,18,23,2.60
2007,01,31,18,24,2.60
2007,01,31,18,25,2.60
2007,01,31,18,26,2.50
2007,01,31,18,27,2.50
2007,01,31,18,28,2.50
2007,01,31,18,29,2.40
2007,01,31,18,30,2.40
2007,01,31,18,31,2.40
2007,01,31,18,32,2.40
2007,01,31,18,33,2.30
2007,01,31,18,34,2.30
2007,01,31,18,35,2.30
2007,01,31,18,36,2.30
2007,01,31,18,37,2.30
2007,01,31,18,38,2.20
2007,01,31,18,39,2.20
2007,01,31,18,40,2.20
2007,01,31,18,41,2.20
2007,01,31,18,42,2.20
2007,01,31,18,43,2.10
2007,01,31,18,44,2.10